Location: Asheville, NC
(35.6000°N, 82.5500°W)
Time: 15:56:24
(UTC-05:00)

Vanguard 1 Rocket - Pass Details

Date: 16 December 2017
Orbit: 656 x 4222 km, 34.3° (Epoch: 19 January)

Event Time Altitude Azimuth Distance (km) Brightness Sun altitude
Rises 00:44:46 0° 283° (WNW) 7,262 12.0 -77.1°
Enters shadow 00:49:09 - 276° (W) 6,768 11.7 -76.7°
Exits shadow 01:29:35 - 170° (S) 7,185 11.8 -71.5°
Sets 01:34:10 0° 163° (SSE) 7,674 12.1 -70.8°
